SL-8 R/B, 1589

Orbit data source: Space-Track

SL-8 R/B, 1589 is space debris in LEO originally from a launch on Sat, 18 Sep 1965 UTC launched from the Tyuratam Missile And Space Complex (TTMTR). Debris objects in space refer to the collection of defunct objects orbiting the Earth. Examples of debris include non-operational satellites, rocket bodies, and fragments generated from explosions, collisions, or faulty payload assembly.

Loading next visibility...
Identifier
1589, 1965-073F
Orbit
LEO
Country
Flag of CISCIS
Related business
Manufacturer
Yuzhnoe
Mission
Spacecraft
Bus & Motor
S3, Unknown motor
Mass
1,434 kg wet, 1,434 kg dry
Launch date (UTC)
1965-09-18 (60 years ago)
Launch vehicle
Unknown
Launch site
Tyuratam Missile And Space Complex (TTMTR)
Object type
Payload
Rocket body
Debris
Shape & HBR
Cyl, 3.3 m
Radar Cross Section
14.646 m², Large (>1 m²)

Expand to show TLE details & history
Last TLE update: 6 hours ago

TLE from 6 hours ago
0 SL-8 R/B
1 01589U 65073F   25242.92704817 -.00000093  00000-0 -14358-4 0  9996
2 01589  56.0509 112.1552 0159348   0.4365  10.8882 12.33054328699906
Epoch: 2025-08-30T22:14Z
TLE epoch observation values (Epoch: 2025-08-30T22:14:56.961Z)
Latitude
9.64339°
Longitude
165.59932°
Altitude
1,412.731 km
Speed
7.211 km/s
True Right ascension
07h 54m 45s
True Declination
9° 35' 29"
Sunlit
Object was in daylight at epoch
Visualization orbit readout
Latitude
Unknown
Longitude
Unknown
Altitude
Unknown
Speed
Unknown
Apparent Right ascension
Unknown
Apparent Declination
Unknown
Sunlit
N/A
Visualization observer readout
Local Sidereal Time
20:21:04
Azimuth
Unknown
Elevation
Unknown
Doppler factor
Unknown
Orbital elements
Apogee altitude
1,662.121 km
Perigee altitude
1,409.9 km
Semi-major axis
7,914.147 km
Eccentricity
0.01593
Inclination
56.0509°
RAAN
112.1552°
Arg. of periapsis
0.4365°
True anomaly
11.23999°
Mean anomaly
10.8882°
Eccentric anomaly
11.0634°
Mean motion
3.08274 °/min
Orbital period
116.78 mins
BSTAR
-0.000014358
Loading maneuver chart data...
Computing Atmospheric mass density...
Loading historical data...
Loading historical data...
Loading historical data...
Loading historical data...
Loading historical data...
Loading historical data...
Loading historical data...

Documentation

Showing up to 5 results
|